Regional Weather Roundup
Issued by NWS Sioux Falls, SD

Home | Current Version | Previous Version | Graphics & Text | Print | Product List | Glossary On
Versions: 1 2 3 4 5 6 7 8 9 10 11 12 13 14 15 16 17 18 19 20 21 22 23 24 25 26 27 28 29 30 31 32 33 34 35 36 37 38 39 40 41 42 43 44 45 46 47 48 49 50
000
ASUS43 KFSD 112002
RWRFSD

WEATHER ROUNDUP FOR SE SOUTH DAKOTA/SW MINNESOTA/NW IOWA
NATIONAL WEATHER SERVICE SIOUX FALLS SD
200 PM CST MON DEC 11 2017

NOTE: "FAIR" INDICATES FEW OR NO CLOUDS BELOW 12,000 FEET WITH NO
SIGNIFICANT WEATHER AND OR OBSTRUCTIONS TO VISIBILITY.


SDZ038>040-050-052>070-112100-
SOUTHEAST SOUTH DAKOTA

CITY           SKY/WX    TMP DP  RH WIND       PRES   REMARKS
BROOKINGS      CLOUDY    31  26  82 N23G29    30.07R WCI  18
CHAMBERLAIN    CLOUDY    40  34  78 NW20G28   30.22R
HURON          PTSUNNY   38  29  70 N28G35    30.16R
MADISON        CLOUDY    32  32 100 N29       30.09R WCI  18
MITCHELL       CLOUDY    39  31  72 N25G37    30.16R
SIOUX FALLS    CLOUDY    36  29  75 N30G38    30.07R
WINNER         CLOUDY    41  31  67 NW26G36   30.23R
YANKTON        CLOUDY    39  31  72 NW28G37   30.10R
$$

MNZ071-072-080-081-089-090-097-098-112100-
SOUTHWEST MINNESOTA

CITY           SKY/WX    TMP DP  RH WIND       PRES   REMARKS
FAIRMONT       CLOUDY    34  30  85 NW30      29.91R WCI  20
JACKSON        CLOUDY    32  28  86 MISG      29.95R
LUVERNE        CLOUDY    32  27  80 N24G38    30.03R WCI  19
MARSHALL       CLOUDY    29  24  82 N35G40    30.03R WCI  12
MONTEVIDEO     CLOUDY    27  21  80 N28G41    30.06R WCI  11
PIPESTONE      CLOUDY    30  25  80 N20G36    30.03R WCI  18
REDWOOD FALLS  CLOUDY    31  24  75 N24G35    30.00R WCI  17
TRACY          CLOUDY    30  26  85 N31G41    30.02R WCI  15
WINDOM           N/A     30  18  59 NW35G45   29.96R WCI  14
WORTHINGTON    CLOUDY    30  27  88 N33G39    29.98R WCI  14
$$

IAZ001>003-012>014-020>022-031-032-NEZ013-014-SDZ071-112100-
NORTHWEST IOWA

CITY           SKY/WX    TMP DP  RH WIND       PRES   REMARKS
DENISON        CLOUDY    41  32  70 NW24G30   29.97R
ESTHERVILLE    CLOUDY    32  30  92 N31G40    29.93R WCI  17
LE MARS        CLOUDY    39  30  70 N21G32    30.02R
ORANGE CITY    CLOUDY    37  32  81 N20G36    30.01R
SHELDON        CLOUDY    36  28  75 N32G46    29.98R
SIOUX CITY     CLOUDY    41  32  70 N36G44    30.01R
SPENCER        CLOUDY    33  28  81 N33G46    29.97R WCI  18
STORM LAKE     CLOUDY    37  30  75 NW28G36   29.94R
$$

ABBREVIATIONS USED IN REMARKS
   TC - TEMPERATURE IN CELSIUS
  WCI - WIND CHILL INDEX
   HX - HEAT INDEX
  VSB - VISIBILITY




USA.gov is the U.S. government's official web portal to all federal, state and local government web resources and services.